"Pseudo-MPEC" for A11EvW0

Created 2026 Jul 16 10:35:02 UT using Find_Orb

Click here for an explanation of pseudo-MPECs

 
 Astrometry: 
     A11EvW0*0C2026 07 11.25353619 07 08.261-27 12 41.00   ~7CF5 18.76oVNEOCPW68
     A11EvW0 0C2026 07 11.26082419 07 19.680-27 12 37.01   ~7CF5 18.83oVNEOCPW68
     A11EvW0 0C2026 07 11.26488419 07 26.237-27 12 33.48   ~7CF5 18.87oVNEOCPW68
     A11EvW0 0C2026 07 11.27538119 07 42.778-27 12 26.71   ~7CF5 18.75oVNEOCPW68

Station data:
(W68) ATLAS Chile, Rio Hurtado  (S30.471010 W70.764980)  Chile.  Observers L.
   Denneau, R. Siverd, J. Tonry, H. Weiland. Measurers L. Denneau, N.
   Erasmus, A. Fitzsimmons, J. Robinson, R. Siverd, J. Tonry, H. Weiland.
   0.5-m f/2.0 Schmidt + CCD.

Orbital elements:  A11EvW0
   Perihelion 2026 Jul 16.466954 +/- 34.2 TT = 11:12:24.7 (JD 2461237.966954)
Epoch 2026 Jul 11.0 TT = JDT 2461232.5   Earth MOID: 0.0266   Ma: 0.0056
M 357.731007455 +/- 19              (J2000 ecliptic)             AutoNEOCP
n   0.415037827 +/- 0.273           Peri.  195.110135 +/- 70
a   1.779962811 +/- 0.782           Node    99.137301 +/- 60
e   0.41414747 +/- 0.233            Incl.    0.742734 +/- 0.9
P   2.375/867.374d         H 26.36  G  0.15   U 11.9  SR
q 1.042795700 +/- 0.0975    Q 2.517129921 +/- 5.15
From 4 observations 2026 July 11 (31.5 min); mean residual 0".53
Residuals in arcseconds: 
260711 W68  .17+  .09+    260711 W68  .93+  .43+    
260711 W68  .93-  .45-    260711 W68  .17-  .08-    

Ephemerides (geocentric):
Date (UTC) HH   RA             Dec           delta  r     elong  mag " sig PA
---- --------  ------------   ------------  ------ ------ -----  --- --------
2026 07 16 11  21 31 25.940   -22 05 52.60  .02914 1.0428 154.6 19.9  44d 112
2026 07 16 12  21 32 24.785   -22 01 50.57  .02919 1.0428 154.4 19.9  44d 112
2026 07 16 13  21 33 23.373   -21 57 48.03  .02924 1.0428 154.2 19.9  44d 112
2026 07 16 14  21 34 21.702   -21 53 45.01  .02929 1.0428 154.0 19.9  45d 112
2026 07 16 15  21 35 19.773   -21 49 41.53  .02933 1.0428 153.8 20.0  45d 112
2026 07 16 16  21 36 17.586   -21 45 37.63  .02938 1.0428 153.6 20.0  45d 112
2026 07 16 17  21 37 15.138   -21 41 33.30  .02944 1.0428 153.4 20.0  45d 112
2026 07 16 18  21 38 12.431   -21 37 28.60  .02949 1.0428 153.2 20.0  45d 112
2026 07 16 19  21 39 09.463   -21 33 23.52  .02954 1.0428 153.0 20.0  45d 112
2026 07 16 20  21 40 06.235   -21 29 18.11  .02959 1.0428 152.8 20.0  45d 112
2026 07 16 21  21 41 02.746   -21 25 12.37  .02964 1.0428 152.7 20.0  45d 112
2026 07 16 22  21 41 58.995   -21 21 06.34  .02969 1.0428 152.5 20.0  46d 112
2026 07 16 23  21 42 54.983   -21 17 00.03  .02975 1.0428 152.3 20.0  46d 112
2026 07 17 00  21 43 50.709   -21 12 53.46  .02980 1.0428 152.1 20.0  46d 112
2026 07 17 01  21 44 46.174   -21 08 46.66  .02986 1.0428 151.9 20.0  46d 112
2026 07 17 02  21 45 41.376   -21 04 39.65  .02991 1.0428 151.7 20.1  46d 112
2026 07 17 03  21 46 36.317   -21 00 32.45  .02997 1.0428 151.6 20.1  46d 112
2026 07 17 04  21 47 30.995   -20 56 25.08  .03002 1.0428 151.4 20.1  46d 112
2026 07 17 05  21 48 25.411   -20 52 17.56  .03008 1.0428 151.2 20.1  46d 112
2026 07 17 06  21 49 19.565   -20 48 09.91  .03014 1.0428 151.0 20.1  47d 112
2026 07 17 07  21 50 13.456   -20 44 02.15  .03019 1.0428 150.8 20.1  47d 112
2026 07 17 08  21 51 07.086   -20 39 54.29  .03025 1.0428 150.7 20.1  47d 112
2026 07 17 09  21 52 00.454   -20 35 46.37  .03031 1.0428 150.5 20.1  47d 112
2026 07 17 10  21 52 53.560   -20 31 38.40  .03037 1.0428 150.3 20.1  47d 112
2026 07 17 11  21 53 46.405   -20 27 30.39  .03043 1.0428 150.1 20.1  47d 112
2026 07 17 12  21 54 38.988   -20 23 22.37  .03049 1.0428 150.0 20.1  47d 112
2026 07 17 13  21 55 31.310   -20 19 14.35  .03055 1.0428 149.8 20.2  47d 112
2026 07 17 14  21 56 23.372   -20 15 06.35  .03061 1.0428 149.6 20.2  47d 112
2026 07 17 15  21 57 15.173   -20 10 58.40  .03067 1.0428 149.4 20.2  47d 112
2026 07 17 16  21 58 06.713   -20 06 50.50  .03073 1.0429 149.3 20.2  48d 112
2026 07 17 17  21 58 57.994   -20 02 42.68  .03079 1.0429 149.1 20.2  48d 112
2026 07 17 18  21 59 49.015   -19 58 34.95  .03085 1.0429 148.9 20.2  48d 112
2026 07 17 19  22 00 39.778   -19 54 27.33  .03091 1.0429 148.8 20.2  48d 112
2026 07 17 20  22 01 30.281   -19 50 19.83  .03098 1.0429 148.6 20.2  48d 112
2026 07 17 21  22 02 20.527   -19 46 12.47  .03104 1.0429 148.4 20.2  48d 112
2026 07 17 22  22 03 10.515   -19 42 05.27  .03110 1.0429 148.3 20.2  48d 112
2026 07 17 23  22 04 00.245   -19 37 58.25  .03117 1.0429 148.1 20.2  48d 112
2026 07 18 00  22 04 49.719   -19 33 51.41  .03123 1.0429 147.9 20.3  48d 112
2026 07 18 01  22 05 38.937   -19 29 44.78  .03130 1.0429 147.8 20.3  48d 112
2026 07 18 02  22 06 27.900   -19 25 38.37  .03136 1.0429 147.6 20.3  48d 112
2026 07 18 03  22 07 16.607   -19 21 32.19  .03143 1.0429 147.5 20.3  49d 112
2026 07 18 04  22 08 05.060   -19 17 26.26  .03150 1.0429 147.3 20.3  49d 112
2026 07 18 05  22 08 53.260   -19 13 20.59  .03156 1.0429 147.1 20.3  49d 112
2026 07 18 06  22 09 41.206   -19 09 15.19  .03163 1.0429 147.0 20.3  49d 112
2026 07 18 07  22 10 28.900   -19 05 10.09  .03170 1.0430 146.8 20.3  49d 112
2026 07 18 08  22 11 16.343   -19 01 05.29  .03177 1.0430 146.7 20.3  49d 112
2026 07 18 09  22 12 03.534   -18 57 00.81  .03184 1.0430 146.5 20.3  49d 112
2026 07 18 10  22 12 50.475   -18 52 56.65  .03190 1.0430 146.4 20.3  49d 112